This is the latest recevied weather packets stored in our database for station/object WD4IXD-WX. If no packets are shown the sender has not sent any weather packets the latest 10 day(s).
| Time | Temp. | Humidity | Pressure | Rain* | Wind** | Luminosity | Snow |
|---|---|---|---|---|---|---|---|
| 1777934704 | 8.33° C | 52% | 1014.6 hPa | 0 mm | - | 246 W/m² | - |
| 1777934404 | 8.33° C | 53% | 1014.5 hPa | 0 mm | - | 246 W/m² | - |
| 1777934104 | 8.89° C | 50% | 1014.5 hPa | 0 mm | - | 264 W/m² | - |
| 1777933804 | 10° C | 44% | 1014.5 hPa | 0 mm | - | 211 W/m² | - |
| 1777933504 | 10° C | 41% | 1014.7 hPa | 0 mm | - | 135 W/m² | - |
| 1777933204 | 10.56° C | 40% | 1014.7 hPa | 0 mm | - | 146 W/m² | - |
| 1777932905 | 10° C | 41% | 1014.6 hPa | 0 mm | - | 156 W/m² | - |
| 1777932604 | 10° C | 41% | 1014.6 hPa | 0 mm | - | 214 W/m² | - |
| 1777932304 | 10° C | 42% | 1014.7 hPa | 0 mm | - | 260 W/m² | - |
| 1777932003 | 10° C | 42% | 1014.8 hPa | 0 mm | - | 373 W/m² | - |
| 1777931704 | 10° C | 42% | 1014.8 hPa | 0 mm | - | 278 W/m² | - |
| 1777931404 | 9.44° C | 42% | 1014.9 hPa | 0 mm | - | 287 W/m² | - |
| 1777931104 | 9.44° C | 41% | 1014.9 hPa | 0 mm | - | 290 W/m² | - |
| 1777930804 | 10° C | 40% | 1015 hPa | 0 mm | - | 287 W/m² | - |
| 1777930504 | 10° C | 41% | 1015.1 hPa | 0 mm | - | 192 W/m² | - |
| 1777930204 | 10° C | 40% | 1015.2 hPa | 0 mm | - | 186 W/m² | - |
| 1777929904 | 10° C | 38% | 1015 hPa | 0 mm | - | 244 W/m² | - |
| 1777929604 | 10° C | 41% | 1015.1 hPa | 0 mm | - | 294 W/m² | - |
| 1777929303 | 10° C | 37% | 1015.2 hPa | 0 mm | - | 167 W/m² | - |
| 1777929004 | 10° C | 37% | 1015.1 hPa | 0 mm | - | 97 W/m² | - |
| 1777928703 | 10° C | 38% | 1015.2 hPa | 0 mm | - | 118 W/m² | - |
| 1777928404 | 10° C | 38% | 1015.2 hPa | 0 mm | - | 190 W/m² | - |
| 1777928103 | 10° C | 39% | 1015.3 hPa | 0 mm | - | 294 W/m² | - |
| 1777927804 | 9.44° C | 40% | 1015.4 hPa | 0 mm | - | 738 W/m² | - |
| 1777927504 | 9.44° C | 41% | 1015.5 hPa | 0 mm | - | 313 W/m² | - |
* Rain latest hour (hover to see other rain measurements)
** Current wind speed in m/s (hover to see current wind gust speed)